﻿測定場所 (Monitoring sites),日付 (Measurement date),時間 (Measurement time),線量率 最大値 (max) μGy/h,線量率 最小値 (min) μGy/h,線量率 平均値 (average) μGy/h,
江戸川 (Edogawa),2013-02-17,23:01～24:00,0.0991,0.0876,0.0930,
江戸川 (Edogawa),2013-02-17,22:01～23:00,0.0974,0.0848,0.0923,
江戸川 (Edogawa),2013-02-17,21:01～22:00,0.0984,0.0872,0.0933,
江戸川 (Edogawa),2013-02-17,20:01～21:00,0.0973,0.0851,0.0922,
江戸川 (Edogawa),2013-02-17,19:01～20:00,0.101,0.0868,0.0928,
江戸川 (Edogawa),2013-02-17,18:01～19:00,0.0987,0.0882,0.0927,
江戸川 (Edogawa),2013-02-17,17:01～18:00,0.0995,0.0875,0.0927,
江戸川 (Edogawa),2013-02-17,16:01～17:00,0.0982,0.0813,0.0924,
江戸川 (Edogawa),2013-02-17,15:01～16:00,0.0988,0.0845,0.0933,
江戸川 (Edogawa),2013-02-17,14:01～15:00,0.100,0.0834,0.0937,
江戸川 (Edogawa),2013-02-17,13:01～14:00,0.0993,0.0876,0.0931,
江戸川 (Edogawa),2013-02-17,12:01～13:00,0.0979,0.0861,0.0919,
江戸川 (Edogawa),2013-02-17,11:01～12:00,0.0974,0.0869,0.0924,
江戸川 (Edogawa),2013-02-17,10:01～11:00,0.0993,0.0865,0.0917,
江戸川 (Edogawa),2013-02-17,09:01～10:00,0.0974,0.0856,0.0913,
江戸川 (Edogawa),2013-02-17,08:01～09:00,0.0997,0.0852,0.0918,
江戸川 (Edogawa),2013-02-17,07:01～08:00,0.0968,0.0875,0.0913,
江戸川 (Edogawa),2013-02-17,06:01～07:00,0.0961,0.0874,0.0911,
江戸川 (Edogawa),2013-02-17,05:01～06:00,0.0975,0.0865,0.0918,
江戸川 (Edogawa),2013-02-17,04:01～05:00,0.0982,0.0863,0.0919,
江戸川 (Edogawa),2013-02-17,03:01～04:00,0.0976,0.0872,0.0919,
江戸川 (Edogawa),2013-02-17,02:01～03:00,0.0979,0.0862,0.0919,
江戸川 (Edogawa),2013-02-17,01:01～02:00,0.0984,0.0877,0.0923,
江戸川 (Edogawa),2013-02-17,00:01～01:00,0.0959,0.0867,0.0921,
江戸川 (Edogawa),2013-02-16,23:01～24:00,0.0970,0.0866,0.0922,
江戸川 (Edogawa),2013-02-16,22:01～23:00,0.101,0.0865,0.0920,
江戸川 (Edogawa),2013-02-16,21:01～22:00,0.0981,0.0870,0.0929,
江戸川 (Edogawa),2013-02-16,20:01～21:00,0.0986,0.0868,0.0929,
江戸川 (Edogawa),2013-02-16,19:01～20:00,0.0993,0.0852,0.0928,
江戸川 (Edogawa),2013-02-16,18:01～19:00,0.0985,0.0869,0.0925,
江戸川 (Edogawa),2013-02-16,17:01～18:00,0.0997,0.0867,0.0925,
江戸川 (Edogawa),2013-02-16,16:01～17:00,0.100,0.0863,0.0927,
江戸川 (Edogawa),2013-02-16,15:01～16:00,0.0985,0.0846,0.0928,
江戸川 (Edogawa),2013-02-16,14:01～15:00,0.0998,0.0867,0.0925,
江戸川 (Edogawa),2013-02-16,13:01～14:00,0.0987,0.0871,0.0924,
江戸川 (Edogawa),2013-02-16,12:01～13:00,0.0996,0.0865,0.0924,
江戸川 (Edogawa),2013-02-16,11:01～12:00,0.0979,0.0850,0.0918,
江戸川 (Edogawa),2013-02-16,10:01～11:00,0.0993,0.0858,0.0915,
江戸川 (Edogawa),2013-02-16,09:01～10:00,0.0969,0.0868,0.0922,
江戸川 (Edogawa),2013-02-16,08:01～09:00,0.0970,0.0847,0.0908,
江戸川 (Edogawa),2013-02-16,07:01～08:00,0.0948,0.0848,0.0908,
江戸川 (Edogawa),2013-02-16,06:01～07:00,0.0990,0.0836,0.0913,
江戸川 (Edogawa),2013-02-16,05:01～06:00,0.0963,0.0887,0.0919,
江戸川 (Edogawa),2013-02-16,04:01～05:00,0.0994,0.0843,0.0917,
江戸川 (Edogawa),2013-02-16,03:01～04:00,0.0974,0.0854,0.0918,
江戸川 (Edogawa),2013-02-16,02:01～03:00,0.0964,0.0847,0.0911,
江戸川 (Edogawa),2013-02-16,01:01～02:00,0.0964,0.0847,0.0907,
江戸川 (Edogawa),2013-02-16,00:01～01:00,0.0960,0.0861,0.0915,
江戸川 (Edogawa),2013-02-15,23:01～24:00,0.0970,0.0832,0.0918,
江戸川 (Edogawa),2013-02-15,22:01～23:00,0.0971,0.0850,0.0914,
江戸川 (Edogawa),2013-02-15,21:01～22:00,0.0964,0.0872,0.0915,
江戸川 (Edogawa),2013-02-15,20:01～21:00,0.0958,0.0850,0.0914,
江戸川 (Edogawa),2013-02-15,19:01～20:00,0.0986,0.0887,0.0931,
江戸川 (Edogawa),2013-02-15,18:01～19:00,0.103,0.0888,0.0965,
江戸川 (Edogawa),2013-02-15,17:01～18:00,0.102,0.0907,0.0963,
江戸川 (Edogawa),2013-02-15,16:01～17:00,0.104,0.0940,0.0989,
江戸川 (Edogawa),2013-02-15,15:01～16:00,0.109,0.0973,0.103,
江戸川 (Edogawa),2013-02-15,14:01～15:00,0.106,0.0923,0.0996,
江戸川 (Edogawa),2013-02-15,13:01～14:00,0.104,0.0907,0.0976,
江戸川 (Edogawa),2013-02-15,12:01～13:00,0.101,0.0903,0.0953,
江戸川 (Edogawa),2013-02-15,11:01～12:00,0.0987,0.0877,0.0937,
江戸川 (Edogawa),2013-02-15,10:01～11:00,0.0984,0.0889,0.0943,
江戸川 (Edogawa),2013-02-15,09:01～10:00,0.0992,0.0901,0.0943,
江戸川 (Edogawa),2013-02-15,08:01～09:00,0.100,0.0871,0.0941,
江戸川 (Edogawa),2013-02-15,07:01～08:00,0.101,0.0842,0.0931,
江戸川 (Edogawa),2013-02-15,06:01～07:00,0.0984,0.0876,0.0936,
江戸川 (Edogawa),2013-02-15,05:01～06:00,0.0980,0.0867,0.0928,
江戸川 (Edogawa),2013-02-15,04:01～05:00,0.0979,0.0888,0.0934,
江戸川 (Edogawa),2013-02-15,03:01～04:00,0.101,0.0883,0.0931,
江戸川 (Edogawa),2013-02-15,02:01～03:00,0.0997,0.0864,0.0934,
江戸川 (Edogawa),2013-02-15,01:01～02:00,0.0993,0.0874,0.0930,
江戸川 (Edogawa),2013-02-15,00:01～01:00,0.0994,0.0869,0.0932,
江戸川 (Edogawa),2013-02-14,23:01～24:00,0.0998,0.0876,0.0928,
江戸川 (Edogawa),2013-02-14,22:01～23:00,0.0996,0.0881,0.0925,
江戸川 (Edogawa),2013-02-14,21:01～22:00,0.0996,0.0868,0.0927,
江戸川 (Edogawa),2013-02-14,20:01～21:00,0.0991,0.0878,0.0931,
江戸川 (Edogawa),2013-02-14,19:01～20:00,0.0992,0.0868,0.0927,
江戸川 (Edogawa),2013-02-14,18:01～19:00,0.0986,0.0869,0.0937,
江戸川 (Edogawa),2013-02-14,17:01～18:00,0.0989,0.0894,0.0933,
江戸川 (Edogawa),2013-02-14,16:01～17:00,0.0997,0.0852,0.0932,
江戸川 (Edogawa),2013-02-14,15:01～16:00,0.0994,0.0881,0.0936,
江戸川 (Edogawa),2013-02-14,14:01～15:00,0.100,0.0891,0.0936,
江戸川 (Edogawa),2013-02-14,13:01～14:00,0.100,0.0873,0.0940,
江戸川 (Edogawa),2013-02-14,12:01～13:00,0.0978,0.0876,0.0931,
江戸川 (Edogawa),2013-02-14,11:01～12:00,0.101,0.0868,0.0938,
江戸川 (Edogawa),2013-02-14,10:01～11:00,0.101,0.0869,0.0927,
江戸川 (Edogawa),2013-02-14,09:01～10:00,0.0988,0.0857,0.0922,
江戸川 (Edogawa),2013-02-14,08:01～09:00,0.100,0.0873,0.0926,
江戸川 (Edogawa),2013-02-14,07:01～08:00,0.0968,0.0864,0.0919,
江戸川 (Edogawa),2013-02-14,06:01～07:00,0.0980,0.0859,0.0922,
江戸川 (Edogawa),2013-02-14,05:01～06:00,0.100,0.0865,0.0925,
江戸川 (Edogawa),2013-02-14,04:01～05:00,0.100,0.0864,0.0914,
江戸川 (Edogawa),2013-02-14,03:01～04:00,0.0983,0.0866,0.0918,
江戸川 (Edogawa),2013-02-14,02:01～03:00,0.0972,0.0866,0.0923,
江戸川 (Edogawa),2013-02-14,01:01～02:00,0.0976,0.0864,0.0924,
江戸川 (Edogawa),2013-02-14,00:01～01:00,0.0986,0.0882,0.0927,
江戸川 (Edogawa),2013-02-13,23:01～24:00,0.0982,0.0871,0.0918,
江戸川 (Edogawa),2013-02-13,22:01～23:00,0.0976,0.0874,0.0920,
江戸川 (Edogawa),2013-02-13,21:01～22:00,0.0964,0.0859,0.0921,
江戸川 (Edogawa),2013-02-13,20:01～21:00,0.0979,0.0874,0.0920,
江戸川 (Edogawa),2013-02-13,19:01～20:00,0.0967,0.0862,0.0923,
江戸川 (Edogawa),2013-02-13,18:01～19:00,0.0987,0.0879,0.0923,
江戸川 (Edogawa),2013-02-13,17:01～18:00,0.100,0.0861,0.0925,
江戸川 (Edogawa),2013-02-13,16:01～17:00,0.0995,0.0872,0.0929,
江戸川 (Edogawa),2013-02-13,15:01～16:00,0.0979,0.0866,0.0934,
江戸川 (Edogawa),2013-02-13,14:01～15:00,0.0998,0.0874,0.0937,
江戸川 (Edogawa),2013-02-13,13:01～14:00,0.0987,0.0894,0.0931,
江戸川 (Edogawa),2013-02-13,12:01～13:00,0.0984,0.0896,0.0934,
江戸川 (Edogawa),2013-02-13,11:01～12:00,0.0993,0.0853,0.0926,
江戸川 (Edogawa),2013-02-13,10:01～11:00,0.0977,0.0884,0.0927,
江戸川 (Edogawa),2013-02-13,09:01～10:00,0.0967,0.0871,0.0920,
江戸川 (Edogawa),2013-02-13,08:01～09:00,0.0986,0.0873,0.0928,
江戸川 (Edogawa),2013-02-13,07:01～08:00,0.0981,0.0871,0.0926,
江戸川 (Edogawa),2013-02-13,06:01～07:00,0.107,0.0954,0.101,
江戸川 (Edogawa),2013-02-13,05:01～06:00,0.109,0.100,0.104,
江戸川 (Edogawa),2013-02-13,04:01～05:00,0.108,0.0998,0.103,
江戸川 (Edogawa),2013-02-13,03:01～04:00,0.105,0.0991,0.103,
江戸川 (Edogawa),2013-02-13,02:01～03:00,0.107,0.0943,0.0997,
江戸川 (Edogawa),2013-02-13,01:01～02:00,0.0998,0.0894,0.0954,
江戸川 (Edogawa),2013-02-13,00:01～01:00,0.0996,0.0885,0.0936,
江戸川 (Edogawa),2013-02-12,23:01～24:00,0.0995,0.0867,0.0934,
江戸川 (Edogawa),2013-02-12,22:01～23:00,0.101,0.0887,0.0937,
江戸川 (Edogawa),2013-02-12,21:01～22:00,0.0993,0.0868,0.0938,
江戸川 (Edogawa),2013-02-12,20:01～21:00,0.0979,0.0872,0.0931,
江戸川 (Edogawa),2013-02-12,19:01～20:00,0.0994,0.0889,0.0936,
江戸川 (Edogawa),2013-02-12,18:01～19:00,0.103,0.0902,0.0943,
江戸川 (Edogawa),2013-02-12,17:01～18:00,0.0983,0.0884,0.0938,
江戸川 (Edogawa),2013-02-12,16:01～17:00,0.100,0.0873,0.0938,
江戸川 (Edogawa),2013-02-12,15:01～16:00,0.100,0.0881,0.0944,
江戸川 (Edogawa),2013-02-12,14:01～15:00,0.0995,0.0880,0.0945,
江戸川 (Edogawa),2013-02-12,13:01～14:00,0.101,0.0876,0.0948,
江戸川 (Edogawa),2013-02-12,12:01～13:00,0.0996,0.0867,0.0936,
江戸川 (Edogawa),2013-02-12,11:01～12:00,0.102,0.0892,0.0943,
江戸川 (Edogawa),2013-02-12,10:01～11:00,0.101,0.0897,0.0945,
江戸川 (Edogawa),2013-02-12,09:01～10:00,0.101,0.0883,0.0941,
江戸川 (Edogawa),2013-02-12,08:01～09:00,0.0990,0.0879,0.0936,
江戸川 (Edogawa),2013-02-12,07:01～08:00,0.0980,0.0883,0.0929,
江戸川 (Edogawa),2013-02-12,06:01～07:00,0.0989,0.0868,0.0932,
江戸川 (Edogawa),2013-02-12,05:01～06:00,0.100,0.0864,0.0929,
江戸川 (Edogawa),2013-02-12,04:01～05:00,0.0989,0.0876,0.0935,
江戸川 (Edogawa),2013-02-12,03:01～04:00,0.0995,0.0877,0.0934,
江戸川 (Edogawa),2013-02-12,02:01～03:00,0.0990,0.0876,0.0936,
江戸川 (Edogawa),2013-02-12,01:01～02:00,0.0986,0.0889,0.0936,
江戸川 (Edogawa),2013-02-12,00:01～01:00,0.0991,0.0871,0.0933,
江戸川 (Edogawa),2013-02-11,23:01～24:00,0.100,0.0883,0.0941,
江戸川 (Edogawa),2013-02-11,22:01～23:00,0.0985,0.0880,0.0936,
江戸川 (Edogawa),2013-02-11,21:01～22:00,0.100,0.0881,0.0937,
江戸川 (Edogawa),2013-02-11,20:01～21:00,0.0986,0.0900,0.0941,
江戸川 (Edogawa),2013-02-11,19:01～20:00,0.0998,0.0885,0.0947,
江戸川 (Edogawa),2013-02-11,18:01～19:00,0.0987,0.0891,0.0943,
江戸川 (Edogawa),2013-02-11,17:01～18:00,0.101,0.0876,0.0944,
江戸川 (Edogawa),2013-02-11,16:01～17:00,0.101,0.0893,0.0951,
江戸川 (Edogawa),2013-02-11,15:01～16:00,0.101,0.0898,0.0951,
江戸川 (Edogawa),2013-02-11,14:01～15:00,0.101,0.0901,0.0949,
江戸川 (Edogawa),2013-02-11,13:01～14:00,0.0991,0.0888,0.0943,
江戸川 (Edogawa),2013-02-11,12:01～13:00,0.102,0.0885,0.0950,
江戸川 (Edogawa),2013-02-11,11:01～12:00,0.101,0.0904,0.0955,
江戸川 (Edogawa),2013-02-11,10:01～11:00,0.100,0.0904,0.0952,
江戸川 (Edogawa),2013-02-11,09:01～10:00,0.101,0.0891,0.0942,
江戸川 (Edogawa),2013-02-11,08:01～09:00,0.101,0.0902,0.0945,
江戸川 (Edogawa),2013-02-11,07:01～08:00,0.101,0.0904,0.0944,
江戸川 (Edogawa),2013-02-11,06:01～07:00,0.0983,0.0867,0.0939,
江戸川 (Edogawa),2013-02-11,05:01～06:00,0.0995,0.0886,0.0942,
江戸川 (Edogawa),2013-02-11,04:01～05:00,0.0990,0.0886,0.0939,
江戸川 (Edogawa),2013-02-11,03:01～04:00,0.100,0.0884,0.0941,
江戸川 (Edogawa),2013-02-11,02:01～03:00,0.0997,0.0856,0.0939,
江戸川 (Edogawa),2013-02-11,01:01～02:00,0.0997,0.0869,0.0940,
江戸川 (Edogawa),2013-02-11,00:01～01:00,0.101,0.0874,0.0941,
